Location: Bothell
(47.7630°N, 122.2040°W)
Time: 02:47:07
(UTC-07:00)

Amateur Radio Satellites - All Passes

Search period start: 01 August 2015 02:17
Search period end: 02 August 2015 02:17
Location: Bothell, 47.7630°N, 122.2040°W

Satellite Date Start Highest point End Downlink Frequencies (MHz)
Time Altitude Azimuth
BEESAT 3 01 Aug 02:17:50 02:20:50 19° 327° (NNW) 02:23:46 437.485
ISS 01 Aug 02:22:06 02:25:21 58° 16° (NNE) 02:28:35 145.825
YUBILEINY 01 Aug 02:27:20 02:35:32 42° 292° (WNW) 02:43:44 435.215
Cosmos 2504 01 Aug 02:31:07 02:37:25 35° 85° (E) 02:44:15 435.465 / 435.565
ITAMSAT 1 01 Aug 02:32:16 02:35:31 17° 88° (E) 02:38:56 435.822/435.867
BEESAT 01 Aug 02:32:59 02:37:37 47° 261° (W) 02:42:15 436.000
O/OREOS (USA 219) 01 Aug 02:36:37 02:41:06 80° 296° (WNW) 02:45:39 437.305
Oscar 19 01 Aug 02:49:35 02:54:47 80° 104° (ESE) 03:00:00 437.125/150
SWISSCUBE 01 Aug 02:54:11 02:58:22 29° 266° (W) 03:02:31 437.505
STARS 01 Aug 03:00:32 03:04:38 41° 69° (ENE) 03:08:46 437.465
JAS-2 01 Aug 03:00:59 03:06:41 22° 85° (E) 03:12:39 435.910
AIST 2 01 Aug 03:08:41 03:12:19 26° 322° (NW) 03:15:56 435.215
ITUPSAT 1 01 Aug 03:15:49 03:19:29 21° 269° (W) 03:23:03 437.325
BEESAT 2 01 Aug 03:17:51 03:19:19 11° 338° (NNW) 03:20:41 435.950
RS-15 01 Aug 03:24:46 03:34:52 35° 9° (N) 03:45:26 29.354- 29.394
KKS-1 01 Aug 03:26:48 03:31:12 70° 258° (WSW) 03:35:39 437.445
Gurwin Techsat 1B 01 Aug 03:47:44 03:53:05 83° 102° (ESE) 03:58:26 435.225
ISS 01 Aug 03:58:41 04:01:41 34° 215° (SW) 04:04:41 145.825
CUSAT 1 01 Aug 04:01:24 04:02:11 11° 93° (E) 04:03:03 437.405
ITAMSAT 1 01 Aug 04:10:28 04:15:39 72° 288° (WNW) 04:20:48 435.822/435.867
MOZHAYETS 4 01 Aug 04:16:41 04:21:10 51° 71° (ENE) 04:25:43
O/OREOS (USA 219) 01 Aug 04:18:56 04:21:22 14° 318° (NW) 04:23:41 437.305
HORYU 2 01 Aug 04:21:14 04:24:54 24° 93° (E) 04:28:37 437.375
Cosmos 2504 01 Aug 04:22:22 04:29:22 51° 288° (WNW) 04:36:53 435.465 / 435.565
Oscar 19 01 Aug 04:30:10 04:33:35 18° 302° (WNW) 04:36:52 437.125/150
YUBILEINY 01 Aug 04:34:11 04:35:40 10° 321° (NW) 04:36:37 435.215
STARS 01 Aug 04:37:45 04:41:15 23° 267° (W) 04:44:43 437.465
CUBESAT XI-V 01 Aug 04:38:28 04:38:35 10° 56° (NE) 04:38:57 437.345
JAS-2 01 Aug 04:44:53 04:52:44 90° 286° (WNW) 05:00:34 435.910
AO-7 01 Aug 04:57:26 05:05:33 53° 101° (E) 05:13:38 29.400- 29.500
GONETS M04 01 Aug 05:14:05 05:20:20 24° 79° (E) 05:26:55
DANDE 01 Aug 05:21:16 05:24:23 83° 286° (WNW) 05:27:04 436.750
Gurwin Techsat 1B 01 Aug 05:28:58 05:32:29 18° 303° (WNW) 05:35:49 435.225
RS-15 01 Aug 05:38:48 05:50:15 60° 40° (NE) 06:02:13 29.354- 29.394
CUSAT 1 01 Aug 05:42:22 05:44:33 21° 289° (WNW) 05:46:37 437.405
PRISM 01 Aug 05:44:12 05:44:45 10° 57° (ENE) 05:45:29 437.425
ITAMSAT 1 01 Aug 05:51:58 05:54:21 13° 306° (NW) 05:56:31 435.822/435.867
MOZHAYETS 4 01 Aug 05:55:11 05:58:43 21° 270° (W) 06:02:10
HORYU 2 01 Aug 05:57:26 06:01:41 41° 292° (WNW) 06:05:54 437.375
CUBESAT XI-V 01 Aug 06:10:34 06:15:13 65° 74° (ENE) 06:19:51 437.345
Cosmos 2504 01 Aug 06:21:29 06:24:06 12° 315° (NW) 06:26:19 435.465 / 435.565
Cubesat XI-IV 01 Aug 06:22:24 06:25:53 18° 88° (E) 06:29:31 437.490
JAS-2 01 Aug 06:30:51 06:36:57 25° 304° (NW) 06:42:54 435.910
BEESAT 2 01 Aug 06:37:06 06:39:08 13° 26° (NNE) 06:41:13 435.950
STRAND 1 01 Aug 06:40:38 06:45:32 47° 69° (ENE) 06:50:28 437.568
AO-7 01 Aug 06:50:30 06:58:17 44° 302° (WNW) 07:05:55 29.400- 29.500
Cosmos 2499 01 Aug 06:54:20 06:59:36 22° 78° (ENE) 07:05:25 435.465 / 435.565
GONETS M04 01 Aug 07:07:32 07:16:15 84° 280° (W) 07:25:01
PRISM 01 Aug 07:15:19 07:19:31 78° 75° (ENE) 07:23:43 437.425
BEESAT 3 01 Aug 07:16:17 07:19:39 24° 37° (NE) 07:23:00 437.485
CUTE-I 01 Aug 07:17:15 07:22:26 50° 99° (E) 07:27:36 437.470
CUBESAT XI-V 01 Aug 07:50:10 07:53:10 16° 272° (W) 07:55:59 437.345
RS-15 01 Aug 07:51:34 08:02:53 56° 244° (WSW) 08:14:30 29.354- 29.394
Cubesat XI-IV 01 Aug 08:01:17 08:06:38 72° 288° (WNW) 08:11:55 437.490
AIST 2 01 Aug 08:10:00 08:13:06 20° 33° (NNE) 08:16:15 435.215
M-CUBED/EXP-1 PRIME 01 Aug 08:10:21 08:13:09 18° 54° (NE) 08:16:11 437.505
BEESAT 2 01 Aug 08:14:04 08:18:06 53° 47° (NE) 08:22:05 435.950
STRAND 1 01 Aug 08:20:39 08:24:59 26° 267° (W) 08:29:15 437.568
HO-68 01 Aug 08:26:52 08:31:34 19° 86° (E) 08:36:34 435.675
AUBIESAT-1 01 Aug 08:38:42 08:42:14 27° 58° (ENE) 08:46:01 437.475
Cosmos 2499 01 Aug 08:44:16 08:51:45 83° 280° (W) 08:59:55 435.465 / 435.565
AO-7 01 Aug 08:45:10 08:49:03 14° 325° (NW) 08:52:38 29.400- 29.500
DOVE 4 01 Aug 08:53:28 08:57:16 26° 93° (E) 09:01:19 437.250
BEESAT 3 01 Aug 08:53:53 08:57:52 53° 238° (WSW) 09:01:45 437.485
PRISM 01 Aug 08:54:06 08:55:34 11° 273° (W) 08:56:49 437.425
BRITE-PL 01 Aug 08:55:10 08:59:29 64° 101° (E) 09:04:05 437.365/2234.400
CUTE-I 01 Aug 08:57:50 09:02:17 27° 298° (WNW) 09:06:38 437.470
CINEMA 3 01 Aug 09:02:40 09:05:25 16° 88° (E) 09:08:25 145.822/145.860
COMPASS 1 01 Aug 09:03:52 09:06:24 16° 88° (E) 09:09:04 437.405
GOMX 1 01 Aug 09:05:16 09:09:38 50° 99° (E) 09:14:16 467.674
GONETS M04 01 Aug 09:08:12 09:14:44 22° 305° (NW) 09:20:59
UNISAT 6 01 Aug 09:12:13 09:13:48 12° 57° (ENE) 09:15:36 437.425
PCSat 01 Aug 09:17:18 09:22:08 35° 113° (ESE) 09:27:05 145.827
SEEDS 01 Aug 09:18:21 09:22:01 27° 94° (E) 09:25:41 437.485
SO-50 01 Aug 09:18:50 09:22:41 25° 115° (ESE) 09:26:43 436.795
CUTE 1.7 + AOD 2 01 Aug 09:21:17 09:25:15 35° 96° (E) 09:29:13 437.475
Oscar 11 01 Aug 09:27:57 09:29:16 11° 85° (E) 09:30:49 145.826/435.025
CANX-2 01 Aug 09:29:34 09:33:45 48° 98° (E) 09:37:55 2200.000
CUBEBUG 2 01 Aug 09:32:42 09:35:17 15° 87° (E) 09:38:05 437.445
M-CUBED/EXP-1 PRIME 01 Aug 09:43:20 09:47:24 67° 253° (WSW) 09:51:52 437.505
Cubesat XI-IV 01 Aug 09:43:21 09:45:54 13° 306° (NW) 09:48:13 437.490
AAUSAT CUBESAT 2 01 Aug 09:44:15 09:48:05 34° 96° (E) 09:51:56 437.432
AIST 2 01 Aug 09:47:59 09:52:13 81° 235° (SW) 09:56:21 435.215
BEESAT 2 01 Aug 09:52:50 09:55:50 20° 246° (WSW) 09:58:43 435.950
TIGRISAT 01 Aug 09:53:05 09:56:41 26° 65° (ENE) 10:00:27 435.000
ANTELSAT 01 Aug 09:54:50 09:58:33 28° 66° (ENE) 10:02:25 437.575/2403.000
DUCHIFAT 1 01 Aug 09:54:55 09:56:16 12° 59° (ENE) 09:57:48 145.980
QB50P1 01 Aug 09:57:48 09:59:39 13° 59° (ENE) 10:01:40 145.935-145.965
NANOSAT C BR1 01 Aug 09:58:55 10:00:47 13° 60° (ENE) 10:02:49 145.865
RS-15 01 Aug 10:08:09 10:13:00 13° 265° (W) 10:16:46 29.354- 29.394
AUBIESAT-1 01 Aug 10:12:52 10:16:45 39° 258° (WSW) 10:20:56 437.475
HO-68 01 Aug 10:13:10 10:20:25 89° 107° (ESE) 10:27:38 435.675
ZACube-1 01 Aug 10:27:47 10:31:48 31° 94° (E) 10:35:54 437.345
DOVE 4 01 Aug 10:30:54 10:35:10 40° 290° (WNW) 10:39:39 437.250
BRITE-PL 01 Aug 10:34:56 10:37:41 16° 297° (WNW) 10:40:23 437.365/2234.400
YUBILEINY 01 Aug 10:35:50 10:43:22 31° 62° (ENE) 10:51:05 435.215
COMPASS 1 01 Aug 10:38:18 10:42:28 56° 287° (WNW) 10:46:36 437.405
CINEMA 3 01 Aug 10:38:29 10:43:06 69° 286° (WNW) 10:47:55 145.822/145.860
POLYITAN 1 01 Aug 10:38:53 10:42:35 31° 67° (ENE) 10:46:20 437.675
Cosmos 2499 01 Aug 10:41:00 10:46:33 20° 306° (NW) 10:52:06 435.465 / 435.565
GOMX 1 01 Aug 10:44:09 10:47:33 21° 295° (WNW) 10:51:00 467.674
UNISAT 6 01 Aug 10:45:31 10:49:53 85° 77° (ENE) 10:54:24 437.425
FUNcube-1 01 Aug 10:49:10 10:53:33 48° 99° (E) 10:57:59 145.935
UWE-3 01 Aug 10:51:50 10:56:25 67° 101° (E) 11:01:03 435.000/436.395/437.385
SEEDS 01 Aug 10:53:59 10:57:50 33° 292° (WNW) 11:01:38 437.485
POPSAT HIP 1 01 Aug 10:55:31 10:59:30 44° 70° (ENE) 11:03:32 437.405
CUTE 1.7 + AOD 2 01 Aug 10:57:25 11:01:03 26° 294° (WNW) 11:04:35 437.475
50 SAT 01 Aug 10:57:43 10:59:03 12° 87° (E) 11:00:36 437.505
SO-50 01 Aug 10:58:12 11:02:57 56° 314° (NW) 11:07:50 436.795
BUGSAT 1 01 Aug 10:58:49 11:02:20 30° 68° (ENE) 11:05:54 437.445
PCSat 01 Aug 11:00:19 11:05:30 44° 313° (NW) 11:10:43 145.827
Oscar 11 01 Aug 11:01:44 11:06:08 83° 285° (WNW) 11:10:29 145.826/435.025
QB50P2 01 Aug 11:03:06 11:07:12 54° 72° (ENE) 11:11:21 145.880/145.840
DELFI C3 01 Aug 11:03:50 11:07:55 75° 102° (ESE) 11:11:57 145.870
UKube-1 01 Aug 11:03:55 11:06:53 18° 91° (E) 11:09:59 .
O/OREOS (USA 219) 01 Aug 11:04:03 11:08:27 45° 58° (ENE) 11:12:52 437.305
CANX-2 01 Aug 11:06:09 11:09:23 20° 296° (WNW) 11:12:31 2200.000
CUBEBUG 2 01 Aug 11:07:53 11:12:30 71° 286° (WNW) 11:17:12 437.445
AISAT 01 Aug 11:09:15 11:11:41 15° 88° (E) 11:14:18 437.250
HUMSAT D 01 Aug 11:12:38 11:16:38 36° 96° (E) 11:20:40 437.325/437.525
Cosmos 2491 01 Aug 11:16:38 11:22:31 21° 78° (ENE) 11:28:44 435.465 / 435.565
AAUSAT CUBESAT 2 01 Aug 11:20:01 11:23:34 26° 294° (WNW) 11:27:03 437.432
CUBEBUG 1 01 Aug 11:23:24 11:24:50 12° 86° (E) 11:26:29 437.445
DUCHIFAT 1 01 Aug 11:27:17 11:31:28 90° 213° (SSW) 11:35:41 145.980
TIGRISAT 01 Aug 11:29:15 11:33:18 37° 264° (W) 11:37:27 435.000
AIST 2 01 Aug 11:29:51 11:30:06 10° 251° (WSW) 11:30:07 435.215
QB50P1 01 Aug 11:30:45 11:34:57 80° 255° (WSW) 11:39:12 145.935-145.965
ANTELSAT 01 Aug 11:31:14 11:35:15 34° 264° (W) 11:39:21 437.575/2403.000
DX 1 01 Aug 11:31:42 11:35:45 37° 98° (E) 11:39:48 434.975-435.025
NANOSAT C BR1 01 Aug 11:31:53 11:36:04 79° 257° (WSW) 11:40:18 145.865
VELOX 1 01 Aug 11:47:06 11:51:05 33° 96° (E) 11:55:06 145.980
ESTCUBE 1 01 Aug 11:59:51 12:03:54 33° 95° (E) 12:07:58 437.505/2401.250
HO-68 01 Aug 12:01:54 12:07:23 24° 307° (NW) 12:12:42 435.675
ZACube-1 01 Aug 12:04:05 12:08:10 33° 292° (WNW) 12:12:14 437.345
Cosmos 2504 01 Aug 12:12:25 12:17:24 17° 53° (NE) 12:22:53 435.465 / 435.565
POLYITAN 1 01 Aug 12:14:49 12:18:29 28° 265° (W) 12:22:08 437.675
CINEMA 3 01 Aug 12:18:27 12:19:36 11° 303° (WNW) 12:20:31 145.822/145.860
AIST 1 01 Aug 12:20:42 12:24:53 49° 95° (E) 12:29:06
UNISAT 6 01 Aug 12:25:59 12:27:26 11° 276° (W) 12:28:40 437.425
FUNcube-1 01 Aug 12:26:04 12:29:36 22° 296° (WNW) 12:33:05 145.935
UWE-3 01 Aug 12:29:26 12:32:30 17° 298° (WNW) 12:35:28 435.000/436.395/437.385
50 SAT 01 Aug 12:30:10 12:34:10 70° 286° (WNW) 12:38:07 437.505
Oscar 19 01 Aug 12:31:57 12:36:02 25° 62° (ENE) 12:40:14 437.125/150
YUBILEINY 01 Aug 12:32:19 12:41:06 71° 266° (W) 12:49:50 435.215
POPSAT HIP 1 01 Aug 12:32:28 12:35:37 20° 269° (W) 12:38:41 437.405
BUGSAT 1 01 Aug 12:34:20 12:37:49 27° 265° (W) 12:41:15 437.445
UKube-1 01 Aug 12:39:09 12:43:21 50° 289° (WNW) 12:47:31 .
Oscar 11 01 Aug 12:40:09 12:41:38 11° 302° (WNW) 12:42:56 145.826/435.025
DELFI C3 01 Aug 12:40:31 12:42:28 13° 300° (WNW) 12:44:15 145.870
QB50P2 01 Aug 12:40:45 12:43:29 16° 271° (W) 12:46:05 145.880/145.840
SO-50 01 Aug 12:41:16 12:44:34 17° 336° (NNW) 12:47:49 436.795
O/OREOS (USA 219) 01 Aug 12:43:58 12:47:39 24° 256° (WSW) 12:51:14 437.305
AISAT 01 Aug 12:44:22 12:48:45 65° 288° (WNW) 12:53:08 437.250
CUBEBUG 2 01 Aug 12:47:12 12:48:28 11° 303° (WNW) 12:49:30 437.445
PCSat 01 Aug 12:47:23 12:50:24 14° 337° (NNW) 12:53:18 145.827
HUMSAT D 01 Aug 12:48:36 12:52:14 26° 294° (WNW) 12:55:48 437.325/437.525
CUBEBUG 1 01 Aug 12:57:30 13:01:50 80° 286° (WNW) 13:06:10 437.445
DX 1 01 Aug 13:08:14 13:11:50 26° 295° (WNW) 13:15:23 434.975-435.025
Cosmos 2491 01 Aug 13:09:30 13:18:18 89° 95° (E) 13:27:06 435.465 / 435.565
JAS-2 01 Aug 13:19:29 13:22:46 15° 47° (NE) 13:26:30 435.910
VELOX 1 01 Aug 13:23:44 13:27:35 29° 294° (WNW) 13:31:22 145.980
SPROUT 01 Aug 13:32:04 13:36:23 77° 103° (ESE) 13:40:41 437.525
Gurwin Techsat 1B 01 Aug 13:33:30 13:37:59 29° 63° (ENE) 13:42:33 435.225
ESTCUBE 1 01 Aug 13:36:47 13:40:45 30° 293° (WNW) 13:44:37 437.505/2401.250
ITUPSAT 1 01 Aug 13:36:47 13:37:20 10° 84° (E) 13:38:12 437.325
TISAT 1 01 Aug 13:42:26 13:46:37 61° 101° (E) 13:50:48 437.305
ITAMSAT 1 01 Aug 13:53:01 13:57:45 37° 66° (ENE) 14:02:33 435.822/435.867
AIST 1 01 Aug 13:59:46 14:02:53 18° 294° (WNW) 14:05:53
Cosmos 2504 01 Aug 14:03:10 14:11:30 67° 77° (ENE) 14:20:06 435.465 / 435.565
AO-7 01 Aug 14:09:47 14:16:16 27° 49° (NE) 14:22:57 29.400- 29.500
Oscar 19 01 Aug 14:10:08 14:15:08 51° 261° (W) 14:20:09 437.125/150
SO-50 01 Aug 14:25:37 14:27:05 11° 1° (N) 14:28:34 436.795
CUSAT 1 01 Aug 14:29:08 14:32:10 21° 71° (ENE) 14:35:59 437.405
BEESAT 01 Aug 14:29:44 14:34:04 34° 96° (E) 14:38:25 436.000
YUBILEINY 01 Aug 14:31:27 14:36:27 16° 286° (WNW) 14:40:57 435.215
CUBEBUG 1 01 Aug 14:36:21 14:37:31 11° 303° (WNW) 14:38:30 437.445
SWISSCUBE 01 Aug 14:50:09 14:54:53 57° 101° (E) 14:59:34 437.505
JAS-2 01 Aug 15:00:15 15:06:21 59° 68° (ENE) 15:13:21 435.910
Cosmos 2491 01 Aug 15:09:38 15:16:34 24° 303° (WNW) 15:23:15 435.465 / 435.565
SPROUT 01 Aug 15:09:40 15:11:56 14° 300° (WNW) 15:14:04 437.525
ITUPSAT 1 01 Aug 15:11:19 15:16:09 81° 104° (ESE) 15:20:55 437.325
Gurwin Techsat 1B 01 Aug 15:12:40 15:17:47 46° 262° (W) 15:22:55 435.225
KKS-1 01 Aug 15:15:19 15:18:19 18° 90° (E) 15:21:26 437.445
GONETS M04 01 Aug 15:18:23 15:22:51 15° 48° (NE) 15:27:45
TISAT 1 01 Aug 15:19:18 15:21:58 16° 299° (WNW) 15:24:32 437.305
HORYU 2 01 Aug 15:22:34 15:26:34 34° 67° (ENE) 15:30:39 437.375
ITAMSAT 1 01 Aug 15:32:33 15:37:18 34° 264° (W) 15:42:02 435.822/435.867
DANDE 01 Aug 15:54:16 15:57:50 88° 81° (E) 16:02:35 436.750
Cosmos 2504 01 Aug 15:56:04 16:03:14 32° 276° (W) 16:10:23 435.465 / 435.565
AO-7 01 Aug 15:59:47 16:08:12 89° 64° (ENE) 16:16:38 29.400- 29.500
SO-50 01 Aug 16:06:13 16:09:36 18° 25° (NNE) 16:13:02 436.795
BEESAT 01 Aug 16:07:37 16:11:53 32° 294° (WNW) 16:16:06 436.000
CUSAT 1 01 Aug 16:10:55 16:14:44 41° 262° (W) 16:19:41 437.405
PCSat 01 Aug 16:18:31 16:22:05 18° 29° (NNE) 16:25:44 145.827
STARS 01 Aug 16:22:45 16:27:04 50° 100° (E) 16:31:23 437.465
SWISSCUBE 01 Aug 16:28:47 16:32:22 21° 299° (WNW) 16:35:51 437.505
Cosmos 2499 01 Aug 16:39:44 16:42:53 12° 44° (NE) 16:46:36 435.465 / 435.565
JAS-2 01 Aug 16:46:37 16:52:01 29° 272° (W) 16:57:53 435.910
ITUPSAT 1 01 Aug 16:50:33 16:53:28 16° 302° (WNW) 16:56:14 437.325
KKS-1 01 Aug 16:50:57 16:55:20 55° 288° (WNW) 16:59:41 437.445
HORYU 2 01 Aug 16:59:22 17:03:15 28° 266° (W) 17:07:08 437.375
CUTE-I 01 Aug 17:04:39 17:08:21 20° 59° (ENE) 17:12:12 437.470
GONETS M04 01 Aug 17:13:31 17:22:08 60° 74° (ENE) 17:30:46
MOZHAYETS 4 01 Aug 17:45:17 17:49:57 77° 102° (ESE) 17:54:34
SO-50 01 Aug 17:46:13 17:51:10 60° 47° (NE) 17:56:01 436.795
Cubesat XI-IV 01 Aug 17:47:15 17:52:14 41° 67° (ENE) 17:57:16 437.490
AO-7 01 Aug 17:55:51 18:02:13 22° 272° (W) 18:08:17 29.400- 29.500
STARS 01 Aug 17:59:53 18:03:13 21° 297° (WNW) 18:06:27 437.465
PCSat 01 Aug 18:01:16 18:06:40 62° 51° (NE) 18:12:02 145.827
CUBESAT XI-V 01 Aug 18:05:39 18:07:36 13° 85° (E) 18:09:46 437.345
Cosmos 2499 01 Aug 18:30:27 18:38:47 49° 71° (ENE) 18:47:21 435.465 / 435.565
BRITE-PL 01 Aug 18:34:14 18:36:06 13° 61° (ENE) 18:38:08 437.365/2234.400
CUTE-I 01 Aug 18:42:34 18:47:56 74° 256° (WSW) 18:53:19 437.470
STRAND 1 01 Aug 18:49:56 18:51:29 12° 84° (E) 18:53:21 437.568
VERMONT LUNAR 01 Aug 18:56:50 18:58:24 13° 161° (SSE) 19:00:00 437.305
HO-68 01 Aug 18:59:44 19:04:59 23° 53° (NE) 19:10:26 435.675
GONETS M04 01 Aug 19:10:57 19:18:38 35° 275° (W) 19:26:10
MOZHAYETS 4 01 Aug 19:23:50 19:26:39 16° 300° (WNW) 19:29:17
SO-50 01 Aug 19:27:24 19:31:22 24° 246° (WSW) 19:35:11 436.795
Cubesat XI-IV 01 Aug 19:27:39 19:32:28 32° 265° (W) 19:37:14 437.490
CUBESAT XI-V 01 Aug 19:41:06 19:45:44 80° 284° (WNW) 19:50:19 437.345
PCSat 01 Aug 19:45:22 19:49:43 24° 250° (WSW) 19:53:56 145.827
COMPASS 1 01 Aug 19:58:25 20:01:15 18° 63° (ENE) 20:04:12 437.405
DOVE 4 01 Aug 20:02:56 20:06:39 33° 69° (ENE) 20:10:27 437.250
CINEMA 3 01 Aug 20:08:14 20:11:10 19° 63° (ENE) 20:14:15 145.822/145.860
BRITE-PL 01 Aug 20:09:52 20:14:13 76° 257° (WSW) 20:18:24 437.365/2234.400
RS-15 01 Aug 20:11:57 20:18:25 19° 99° (E) 20:25:40 29.354- 29.394
SEEDS 01 Aug 20:13:34 20:17:16 30° 67° (ENE) 20:21:02 437.485
CUTE 1.7 + AOD 2 01 Aug 20:17:13 20:21:12 39° 70° (ENE) 20:25:14 437.475
GOMX 1 01 Aug 20:17:17 20:21:29 77° 75° (ENE) 20:25:39 467.674
UWE-3 01 Aug 20:19:54 20:20:42 11° 57° (ENE) 20:21:42 435.000/436.395/437.385
Cosmos 2499 01 Aug 20:23:48 20:32:01 47° 271° (W) 20:40:16 435.465 / 435.565
CANX-2 01 Aug 20:25:30 20:29:40 52° 72° (ENE) 20:33:53 2200.000
Oscar 11 01 Aug 20:25:44 20:28:10 15° 61° (ENE) 20:30:46 145.826/435.025
STRAND 1 01 Aug 20:26:30 20:31:38 82° 103° (ESE) 20:36:45 437.568
CUTE-I 01 Aug 20:27:34 20:29:05 11° 277° (W) 20:30:16 437.470
PRISM 01 Aug 20:29:29 20:33:38 80° 102° (ESE) 20:37:44 437.425
VERMONT LUNAR 01 Aug 20:31:58 20:34:30 22° 177° (S) 20:37:03 437.305
CUBEBUG 2 01 Aug 20:34:38 20:37:27 18° 62° (ENE) 20:40:25 437.445
AAUSAT CUBESAT 2 01 Aug 20:38:03 20:41:53 36° 69° (ENE) 20:45:47 437.432
ISS 01 Aug 20:41:54 20:42:59 11° 135° (SE) 20:44:10 145.825
HO-68 01 Aug 20:44:48 20:51:57 89° 252° (WSW) 20:59:11 435.675
PHONESAT 2.4 01 Aug 20:57:45 21:00:00 16° 162° (SSE) 21:02:17 2401.200-2431.200
CUBESAT XI-V 01 Aug 21:20:42 21:22:28 12° 303° (WNW) 21:24:02 437.345
Cosmos 2491 01 Aug 21:20:55 21:24:41 14° 45° (NE) 21:28:56 435.465 / 435.565
ZACube-1 01 Aug 21:27:09 21:30:58 35° 68° (ENE) 21:34:56 437.345
COMPASS 1 01 Aug 21:32:25 21:36:33 54° 260° (W) 21:40:44 437.405
DOVE 4 01 Aug 21:41:07 21:44:33 24° 267° (W) 21:47:57 437.250
CINEMA 3 01 Aug 21:44:03 21:48:04 48° 261° (W) 21:52:13 145.822/145.860
50 SAT 01 Aug 21:45:20 21:46:41 12° 60° (ENE) 21:48:13 437.505
FUNcube-1 01 Aug 21:48:09 21:52:16 54° 72° (ENE) 21:56:31 145.935
SEEDS 01 Aug 21:49:16 21:53:02 30° 266° (W) 21:56:48 437.485
AUBIESAT-1 01 Aug 21:51:11 21:53:23 13° 91° (E) 21:55:48 437.475
UWE-3 01 Aug 21:52:18 21:56:30 80° 75° (ENE) 22:00:51 435.000/436.395/437.385
CUTE 1.7 + AOD 2 01 Aug 21:53:49 21:57:17 23° 268° (W) 22:00:40 437.475
DELFI C3 01 Aug 21:53:49 21:57:52 71° 74° (ENE) 22:01:57 145.870
GOMX 1 01 Aug 21:59:08 22:00:18 11° 274° (W) 22:01:14 467.674
Oscar 11 01 Aug 21:59:32 22:03:51 71° 257° (WSW) 22:08:15 145.826/435.025
UKube-1 01 Aug 22:01:49 22:05:20 25° 65° (ENE) 22:08:55 .
CANX-2 01 Aug 22:03:00 22:05:57 17° 271° (W) 22:08:47 2200.000
PRISM 01 Aug 22:06:38 22:08:31 13° 301° (WNW) 22:10:15 437.425
STRAND 1 01 Aug 22:06:59 22:10:16 17° 302° (WNW) 22:13:23 437.568
HUMSAT D 01 Aug 22:07:32 22:11:24 39° 70° (ENE) 22:15:21 437.325/437.525
VERMONT LUNAR 01 Aug 22:08:29 22:10:39 17° 194° (SSW) 22:12:49 437.305
CUBEBUG 2 01 Aug 22:09:38 22:13:45 54° 260° (W) 22:18:01 437.445
AISAT 01 Aug 22:10:03 22:13:21 22° 63° (ENE) 22:16:44 437.250
AAUSAT CUBESAT 2 01 Aug 22:14:06 22:17:35 24° 267° (W) 22:21:02 437.432
ISS 01 Aug 22:15:41 22:18:55 62° 152° (SSE) 22:22:09 145.825
RS-15 01 Aug 22:18:04 22:28:53 73° 121° (ESE) 22:40:12 29.354- 29.394
CUBEBUG 1 01 Aug 22:22:25 22:25:07 17° 61° (ENE) 22:27:55 437.445
AIST 1 01 Aug 22:24:57 22:27:54 18° 66° (ENE) 22:30:56
DX 1 01 Aug 22:30:21 22:34:33 50° 71° (ENE) 22:38:47 434.975-435.025
PHONESAT 2.4 01 Aug 22:34:25 22:37:21 25° 179° (S) 22:40:17 2401.200-2431.200
UNISAT 6 01 Aug 22:35:07 22:37:48 15° 87° (E) 22:40:41 437.425
HO-68 01 Aug 22:35:50 22:40:49 19° 274° (W) 22:45:28 435.675
VELOX 1 01 Aug 22:47:46 22:51:57 45° 70° (ENE) 22:56:11 145.980
BEESAT 3 01 Aug 22:51:53 22:53:10 11° 110° (ESE) 22:54:38 437.485
M-CUBED/EXP-1 PRIME 01 Aug 22:55:21 23:00:08 60° 106° (ESE) 23:04:49 437.505
SPROUT 01 Aug 22:56:33 22:58:03 12° 59° (ENE) 22:59:45 437.525
ESTCUBE 1 01 Aug 23:02:32 23:06:50 46° 70° (ENE) 23:11:12 437.505/2401.250
ZACube-1 01 Aug 23:03:52 23:07:26 25° 267° (W) 23:11:00 437.345
DUCHIFAT 1 01 Aug 23:10:32 23:11:56 12° 86° (E) 23:13:32 145.980
QB50P1 01 Aug 23:13:57 23:15:57 13° 87° (E) 23:18:09 145.935-145.965
NANOSAT C BR1 01 Aug 23:14:50 23:16:50 13° 87° (E) 23:19:02 145.865
Cosmos 2491 01 Aug 23:15:44 23:24:14 54° 72° (ENE) 23:32:45 435.465 / 435.565
50 SAT 01 Aug 23:16:48 23:20:43 79° 257° (WSW) 23:24:41 437.505
TIGRISAT 01 Aug 23:16:59 23:21:17 36° 96° (E) 23:25:39 435.000
ANTELSAT 01 Aug 23:19:06 23:23:30 39° 97° (E) 23:27:56 437.575/2403.000
AUBIESAT-1 01 Aug 23:23:58 23:28:46 86° 290° (WNW) 23:33:27 437.475
FUNcube-1 01 Aug 23:26:15 23:29:01 16° 272° (W) 23:31:40 145.935
DELFI C3 01 Aug 23:31:50 23:33:30 12° 274° (W) 23:34:57 145.870
UWE-3 01 Aug 23:32:18 23:33:45 11° 275° (W) 23:34:58 435.000/436.395/437.385
UKube-1 01 Aug 23:37:17 23:41:19 37° 262° (W) 23:45:21 .
YUBILEINY 01 Aug 23:42:20 23:49:23 30° 82° (E) 23:56:41 435.215
HUMSAT D 01 Aug 23:43:59 23:47:18 22° 268° (W) 23:50:35 437.325/437.525
AISAT 01 Aug 23:45:24 23:49:40 47° 261° (W) 23:53:56 437.250
BEESAT 2 01 Aug 23:48:21 23:52:00 32° 118° (ESE) 23:55:43 435.950
ISS 01 Aug 23:52:18 23:55:27 44° 350° (N) 23:58:37 145.825
POLYITAN 1 01 Aug 23:56:06 00:00:03 35° 96° (E) 00:04:02 437.675
CUBEBUG 1 01 Aug 23:56:43 00:01:03 63° 259° (WSW) 00:05:22 437.445
AIST 1 02 Aug 00:01:45 00:05:53 47° 266° (W) 00:09:58
DX 1 02 Aug 00:08:01 00:11:07 18° 269° (W) 00:14:07 434.975-435.025
UNISAT 6 02 Aug 00:10:26 00:15:07 70° 287° (WNW) 00:19:48 437.425
PHONESAT 2.4 02 Aug 00:12:13 00:14:43 18° 195° (SSW) 00:17:13 2401.200-2431.200
BUGSAT 1 02 Aug 00:12:25 00:16:04 31° 96° (E) 00:19:46 437.445
POPSAT HIP 1 02 Aug 00:12:41 00:16:51 51° 100° (E) 00:21:02 437.405
QB50P2 02 Aug 00:20:32 00:24:48 65° 101° (E) 00:29:03 145.880/145.840
SWISSCUBE 02 Aug 00:24:52 00:27:26 15° 58° (ENE) 00:30:11 437.505
VELOX 1 02 Aug 00:25:22 00:28:45 21° 268° (W) 00:32:04 145.980
BEESAT 3 02 Aug 00:26:26 00:30:31 89° 307° (NW) 00:34:39 437.485
SPROUT 02 Aug 00:29:15 00:33:31 90° 79° (ENE) 00:37:50 437.525
M-CUBED/EXP-1 PRIME 02 Aug 00:30:46 00:34:31 22° 304° (WNW) 00:38:08 437.505
RS-15 02 Aug 00:31:33 00:42:10 48° 329° (NNW) 00:53:14 29.354- 29.394
TISAT 1 02 Aug 00:37:34 00:41:43 71° 74° (ENE) 00:45:54 437.305
ESTCUBE 1 02 Aug 00:40:24 00:43:58 22° 268° (W) 00:47:27 437.505/2401.250
DUCHIFAT 1 02 Aug 00:44:06 00:48:21 78° 285° (WNW) 00:52:36 145.980
ITUPSAT 1 02 Aug 00:45:18 00:48:42 20° 61° (ENE) 00:52:14 437.325
QB50P1 02 Aug 00:48:06 00:52:21 68° 286° (WNW) 00:56:34 145.935-145.965
NANOSAT C BR1 02 Aug 00:48:57 00:53:11 68° 286° (WNW) 00:57:24 145.865
TIGRISAT 02 Aug 00:53:52 00:57:58 30° 293° (WNW) 01:02:02 435.000
ANTELSAT 02 Aug 00:56:07 01:00:09 28° 294° (WNW) 01:04:08 437.575/2403.000
AUBIESAT-1 02 Aug 01:00:00 01:02:48 15° 308° (NW) 01:05:25 437.475
Cosmos 2491 02 Aug 01:13:01 01:20:55 39° 274° (W) 01:28:41 435.465 / 435.565
O/OREOS (USA 219) 02 Aug 01:20:21 01:24:01 26° 105° (ESE) 01:27:47 437.305
BEESAT 2 02 Aug 01:26:11 01:30:01 35° 317° (NW) 01:33:51 435.950
AIST 2 02 Aug 01:26:42 01:30:56 71° 125° (SE) 01:35:12 435.215
ISS 02 Aug 01:29:05 01:32:16 46° 11° (N) 01:35:26 145.825
POLYITAN 1 02 Aug 01:32:14 01:35:50 26° 294° (WNW) 01:39:22 437.675
YUBILEINY 02 Aug 01:36:53 01:45:34 70° 283° (WNW) 01:54:22 435.215
BEESAT 02 Aug 01:39:16 01:43:58 57° 71° (ENE) 01:48:42 436.000
BUGSAT 1 02 Aug 01:48:01 01:51:28 26° 293° (WNW) 01:54:52 437.445
POPSAT HIP 1 02 Aug 01:49:21 01:52:25 19° 297° (WNW) 01:55:22 437.405
UNISAT 6 02 Aug 01:49:46 01:51:08 11° 304° (WNW) 01:52:18 437.425
QB50P2 02 Aug 01:57:36 02:00:15 16° 299° (WNW) 02:02:46 145.880/145.840
SWISSCUBE 02 Aug 01:59:52 02:04:41 87° 255° (WSW) 02:09:31 437.505
BEESAT 3 02 Aug 02:06:11 02:09:03 18° 328° (NNW) 02:11:52 437.485
